Wautoma, WI

8:01 PM CST on November 11, 2019 (GMT -0600)
Wautoma

Weather History for KY50 - October, 2019

Change the Weather History Date:

Sunday, October 20, 2019

  Actual Average (KPCZ) Record (KPCZ)
Temperature  
Mean Temperature 54 °F -  
Max Temperature 63 °F 56 °F 85 °F (1953)
Min Temperature 46 °F 34 °F 21 °F (1952)
Degree Days  
Heating Degree Days 10    
Growing Degree Days 4 (Base 50)    
Moisture  
Dew Point 46 °F    
Average Humidity 87    
Maximum Humidity 100    
Minimum Humidity 48    
Precipitation  
Precipitation 0.00 in - - ()
Sea Level Pressure  
Sea Level Pressure 29.88 in    
Wind  
Wind Speed 3 mph ()    
Max Wind Speed 7 mph    
Max Gust Speed -    
Visibility 6.8 miles    
Events Fog    
Averages and records for this station are not official NWS values.
T = Trace of Precipitation, MM = Missing Value Source: Averaged Metar Reports

Daily Weather History Graph

Daily Weather History Graph

Search for Another Location

Airport or City:

Astronomy

Oct. 20, 2019 Rise Set
Actual Time 7:17 AM CDT 6:05 PM CDT
Civil Twilight 6:48 AM CDT 6:34 PM CDT
Nautical Twilight 6:14 AM CDT 7:08 PM CDT
Astronomical Twilight 5:41 AM CDT 7:41 PM CDT
Moon 11:05 PM CDT (10/20) 1:54 PM CDT (10/20)
Length of Visible Light 11h 46m
Length of Day
10h 47m
Waning Gibbous, 59% of the Moon is Illuminated
Oct 20
Waning Gibbous
Oct 21
Last Quarter
Oct 27
New
Nov 4
First Quarter
Nov 12
Full

Hourly Weather History & Observations

Time (CDT) Temp. Windchill Dew Point Humidity Pressure Visibility Wind Dir Wind Speed Gust Speed Precip Events Conditions
12:56 AM 48.0 °F - 46.9 °F 96% 29.78 in 8.0 mi WNW 5.8 mph - N/A   Overcast
1:56 AM 46.9 °F - 46.0 °F 97% 29.80 in 6.0 mi WNW 4.6 mph - N/A   Overcast
2:56 AM 46.9 °F - 46.0 °F 97% 29.82 in 2.5 mi WNW 4.6 mph - N/A   Overcast
3:07 AM 46.4 °F 42.9 °F 46.4 °F 100% 29.81 in 5.0 mi West 6.9 mph - N/A   Overcast
3:56 AM 46.9 °F - 46.0 °F 97% 29.82 in 1.2 mi Calm Calm - N/A   Overcast
4:03 AM 46.4 °F - 46.4 °F 100% 29.81 in 1.0 mi Calm Calm - N/A   Overcast
4:10 AM 46.4 °F 45.2 °F 46.4 °F 100% 29.82 in 0.8 mi WSW 3.5 mph - N/A   Overcast
4:37 AM 46.4 °F 45.2 °F 46.4 °F 100% 29.82 in 0.5 mi WSW 3.5 mph - N/A Fog Fog
4:49 AM 46.4 °F 45.2 °F 46.4 °F 100% 29.82 in 0.8 mi West 3.5 mph - N/A   Overcast
4:56 AM 46.9 °F - 46.9 °F 100% 29.83 in 1.0 mi West 3.5 mph - N/A   Overcast
5:04 AM 46.4 °F 44.3 °F 46.4 °F 100% - 1.5 mi West 4.6 mph - N/A   Overcast
5:14 AM 46.4 °F 43.5 °F 46.4 °F 100% 29.83 in 3.0 mi WNW 5.8 mph - N/A   Overcast
5:56 AM 46.9 °F - 46.0 °F 97% 29.85 in 5.0 mi Calm Calm - N/A   Overcast
6:54 AM 46.4 °F - 44.6 °F 93% 29.86 in 10.0 mi Calm Calm - N/A   Overcast
6:56 AM 46.9 °F - 45.0 °F 93% 29.87 in 10.0 mi West 4.6 mph - N/A   Overcast
7:56 AM 46.0 °F 44.8 °F 45.0 °F 96% 29.89 in 9.0 mi NW 3.5 mph - N/A   Overcast
8:56 AM 46.0 °F - 44.1 °F 93% 29.91 in 9.0 mi Calm Calm - N/A   Overcast
9:56 AM 46.0 °F - 45.0 °F 96% 29.94 in 9.0 mi Calm Calm - N/A   Overcast
10:56 AM 48.0 °F - 45.0 °F 89% 29.95 in 10.0 mi Calm Calm - N/A   Overcast
11:11 AM 48.2 °F - 46.4 °F 93% 29.94 in 10.0 mi Calm Calm - N/A   Scattered Clouds
11:56 AM 53.1 °F - 46.0 °F 77% 29.94 in 10.0 mi Calm Calm - N/A   Clear
12:56 PM 57.0 °F - 46.9 °F 69% 29.94 in 10.0 mi SE 3.5 mph - N/A   Clear
1:56 PM 60.1 °F - 46.9 °F 62% 29.92 in 10.0 mi Calm Calm - N/A   Clear
2:56 PM 63.0 °F - 45.0 °F 52% 29.91 in 8.0 mi Variable 3.5 mph - N/A   Clear
3:56 PM 63.0 °F - 43.0 °F 48% 29.91 in 10.0 mi East 5.8 mph - N/A   Clear
4:56 PM 61.0 °F - 42.1 °F 50% 29.92 in 10.0 mi Calm Calm - N/A   Clear
5:56 PM 55.0 °F - 48.0 °F 77% 29.92 in 10.0 mi Calm Calm - N/A   Clear
6:56 PM 50.0 °F - 46.9 °F 89% 29.93 in 10.0 mi Calm Calm - N/A   Clear
7:56 PM 48.0 °F - 45.0 °F 89% 29.93 in 10.0 mi Calm Calm - N/A   Clear
8:56 PM 46.9 °F - 44.1 °F 90% 29.92 in 10.0 mi Calm Calm - N/A   Clear
9:56 PM 48.0 °F - 43.0 °F 83% 29.93 in 10.0 mi Calm Calm - N/A   Clear
10:56 PM 50.0 °F - 44.1 °F 80% 29.91 in 9.0 mi East 3.5 mph - N/A   Clear
11:56 PM 48.9 °F - 43.0 °F 80% 29.90 in 4.0 mi East 5.8 mph - N/A   Haze